Location: Gisborne
(38.6530°S, 178.0040°E)
Time: 16:47:58
(UTC+13:00)

Cosmos 540 Rocket - Pass Details

Date: 24 January 2019
Orbit: 741 x 753 km, 74.1° (Epoch: 20 February)

Event Time Altitude Azimuth Distance (km) Brightness Sun altitude
Rises 22:09:30 0° 194° (SSW) 3,240 7.7 -16.9°
Reaches altitude 10° 22:11:57 10° 190° (S) 2,307 6.8 -17.3°
Maximum altitude 22:17:05 55° 111° (ESE) 908 3.7 -18.0°
Enters shadow 22:19:07 34° 51° (NE) 1,234 4.0 -18.3°
